Theta_e
344 345 346 346 346 345 344 344 344 344 343 343 340 339 340 342 340 341 344 345 348 348 349 350 351 352 352 354 354 354 355 355 357 358 357 357 357 357 356 356 355 356 356 355 356 357 357 355 356 356 356 356 357 356 356 357 357 354 351 350 348 346 346 344 343 344 349 346 345 349 351 353 355 355 358 359 360 362 357 362 362 361 361 362 362
344 345 346 346 345 345 345 344 344 344 343 343 342 340 338 340 341 342 340 342 346 347 348 349 350 351 352 352 354 354 355 355 355 357 357 356 356 355 355 356 355 355 355 355 355 356 357 356 356 355 356 355 355 354 356 356 356 356 353 352 352 350 347 348 346 345 345 350 351 353 352 354 355 357 356 357 359 360 359 361 361 362 362 363 363
344 345 345 345 345 346 345 345 344 343 342 342 342 342 340 339 341 341 340 340 344 346 347 348 349 350 350 351 352 353 354 354 355 355 356 356 356 356 356 356 355 355 354 355 355 356 355 355 355 356 355 355 355 354 354 355 355 356 356 354 353 353 351 349 349 347 347 349 348 350 355 357 356 358 359 357 359 358 358 360 359 360 362 363 363
344 345 345 345 345 345 345 345 343 342 341 342 341 342 342 340 341 340 341 341 341 344 346 347 349 349 349 350 351 352 353 354 354 354 355 356 356 356 356 356 356 355 355 355 355 355 355 355 355 355 355 355 355 355 355 355 355 355 354 355 355 355 354 351 349 350 349 348 352 352 355 354 357 357 356 358 357 359 359 360 360 361 362 364 364
343 344 345 344 344 344 344 345 344 343 342 341 341 342 342 342 341 339 340 340 341 342 344 346 347 348 348 349 349 350 351 353 353 354 354 355 355 355 355 356 356 356 356 356 357 356 356 355 356 356 355 354 355 354 355 355 355 354 354 354 354 354 354 354 353 351 350 349 352 354 354 354 356 356 357 356 358 359 359 359 360 362 363 363 362
343 343 344 344 344 344 344 344 344 343 343 342 341 341 342 342 342 342 340 339 340 341 342 343 345 345 347 348 349 350 351 352 352 353 353 354 355 355 356 356 355 356 356 356 357 357 356 356 356 356 355 354 354 355 356 355 355 354 354 354 354 354 354 353 354 353 351 351 351 351 354 353 355 356 357 356 356 356 358 360 361 363 363 361 361
343 343 343 344 344 344 344 343 344 344 344 343 343 342 341 341 342 342 343 341 340 339 340 341 344 344 345 346 347 349 350 351 352 352 353 354 354 354 355 355 355 355 356 356 356 356 356 356 356 356 355 355 355 355 355 355 355 355 356 356 355 354 353 353 353 352 352 351 351 352 351 353 353 353 356 355 356 356 355 355 356 360 361 359 359
343 344 344 344 344 344 345 345 344 345 345 345 345 343 342 341 341 342 344 343 342 340 339 339 341 344 343 343 344 346 347 348 351 352 352 353 353 353 354 354 354 355 355 356 356 356 356 356 356 356 356 356 356 356 356 355 356 354 355 355 355 353 353 353 352 351 351 350 350 350 352 351 352 352 353 353 354 355 356 356 352 355 358 359 359
343 343 344 344 345 346 346 346 346 346 346 345 345 344 344 343 343 342 342 342 343 343 343 341 340 341 343 343 344 344 343 343 345 348 350 352 353 352 353 354 354 354 355 355 356 356 356 356 356 357 358 360 357 356 356 357 356 355 356 355 355 354 353 352 352 351 350 349 349 351 349 349 351 350 350 352 352 351 355 354 354 356 356 355 359
343 343 343 344 346 347 347 348 347 347 346 346 346 346 345 344 343 342 342 342 342 344 344 344 342 341 341 342 343 343 343 343 342 336 340 348 350 351 351 352 353 354 354 354 354 355 355 356 357 360 360 358 353 350 346 348 354 356 357 356 355 354 353 352 352 351 350 349 349 349 348 348 349 351 350 352 354 354 353 355 353 356 355 355 357
344 344 344 345 346 348 348 348 349 348 347 347 347 347 346 346 345 344 344 343 342 343 343 342 342 343 342 341 341 342 344 344 336 330 331 335 346 350 350 351 352 353 353 353 353 354 355 356 356 358 361 363 358 348 345 343 344 345 348 355 358 356 354 352 352 352 350 350 351 350 348 349 350 352 351 351 353 353 354 355 353 352 352 350 348
345 345 346 347 347 348 348 349 349 349 349 348 348 348 348 347 347 346 345 344 344 344 342 342 343 343 343 343 342 342 343 338 330 329 330 329 336 349 350 350 351 352 353 353 353 354 354 354 355 355 357 358 360 361 354 346 341 341 342 342 346 350 352 355 355 353 352 350 350 350 350 350 352 353 351 351 353 355 356 354 350 352 352 351 350
346 346 347 347 348 348 349 349 349 349 349 349 349 349 349 348 347 347 346 346 345 344 344 343 343 343 343 343 342 343 344 334 329 328 328 328 328 340 349 350 350 351 352 353 353 353 354 354 354 355 355 359 360 359 359 358 347 340 340 342 342 341 337 338 344 356 358 354 352 352 352 353 352 353 354 356 357 354 355 352 352 351 352 350 350
348 347 348 348 349 349 350 350 349 350 351 350 350 350 349 349 349 349 349 349 347 346 345 344 344 344 344 343 344 344 344 336 327 325 326 326 327 332 347 349 350 351 351 352 352 353 353 353 353 354 355 356 359 359 359 358 358 356 352 350 351 351 344 336 335 337 346 354 355 353 355 357 353 355 359 359 355 353 354 353 354 351 350 350 354
350 350 349 349 350 350 350 350 350 351 351 351 351 350 350 350 350 350 350 349 348 348 347 346 346 345 345 345 344 344 344 332 325 322 322 323 325 329 345 348 349 350 351 352 352 353 353 354 354 354 354 355 356 357 357 358 357 357 357 356 355 355 355 354 350 347 347 347 352 354 356 358 358 358 359 360 358 358 357 357 357 354 353 353 351
344 346 349 351 351 351 351 351 351 352 352 352 351 351 351 351 350 351 351 351 351 351 351 350 349 348 347 346 345 345 346 329 324 322 320 321 324 337 344 346 348 349 350 351 352 353 354 354 354 354 354 354 354 344 351 357 356 355 354 355 355 356 356 355 343 345 354 352 352 353 354 356 346 357 358 358 359 359 358 355 353 351 350 349 348
342 344 345 346 348 351 353 352 352 352 353 352 352 352 351 351 352 353 351 351 351 350 351 351 351 351 350 349 347 347 347 335 322 320 319 319 323 339 343 345 347 348 349 350 352 352 353 354 354 354 355 354 347 333 334 351 355 354 353 353 354 354 354 356 340 332 333 332 332 334 333 333 332 330 329 331 348 354 354 350 349 350 348 346 348
340 341 344 346 348 348 350 351 352 353 353 352 352 352 353 353 353 354 351 351 350 351 351 351 352 352 351 350 350 349 348 340 322 318 317 317 326 340 343 344 345 347 348 350 352 352 353 357 357 354 354 354 338 331 330 343 354 354 354 352 351 351 353 355 356 353 329 326 326 327 328 330 331 330 330 329 328 341 352 347 350 351 348 348 347
338 338 339 341 344 349 351 350 351 352 353 353 354 353 353 353 354 354 353 353 352 353 353 352 352 352 352 351 346 349 350 343 322 318 316 315 325 342 344 344 344 346 348 348 351 352 352 355 356 353 353 348 333 329 327 340 353 353 353 352 350 350 352 354 355 354 354 351 351 348 344 340 342 343 345 335 332 338 348 351 352 350 348 350 350
335 336 337 337 340 345 349 352 355 356 355 355 355 355 355 355 355 354 354 353 353 353 352 352 351 351 352 352 352 351 350 351 343 318 316 313 317 341 345 344 344 345 347 348 348 350 352 353 350 334 330 330 328 325 323 325 349 353 353 351 350 349 354 354 354 354 353 353 353 354 355 357 356 354 352 351 347 345 345 348 350 351 351 351 353
334 336 336 335 336 339 345 350 351 355 357 357 357 356 356 355 355 354 353 353 353 352 352 352 351 351 352 352 352 352 352 351 348 320 315 313 314 325 345 345 346 346 347 347 349 349 350 352 353 339 326 324 322 321 319 318 329 352 353 352 352 351 351 354 353 357 355 353 352 353 354 355 356 357 357 356 354 351 346 346 349 351 352 352 353
333 334 334 333 334 337 341 347 351 352 355 357 357 356 357 357 356 355 354 354 353 352 352 352 351 351 352 352 352 352 351 342 352 327 317 313 312 315 340 347 346 347 347 348 348 349 350 351 352 342 326 322 320 319 316 317 319 343 351 331 331 331 346 352 353 353 353 353 353 352 353 353 354 355 356 357 356 357 355 352 349 350 354 357 357
331 331 332 333 335 339 342 344 348 352 353 354 355 355 357 357 356 356 355 354 353 352 352 352 351 351 351 352 352 353 354 351 332 343 320 313 311 311 320 336 331 348 348 347 348 349 351 352 353 344 325 319 317 317 317 316 319 331 324 323 324 326 338 349 350 351 351 350 350 350 351 352 352 353 354 355 357 359 358 358 357 355 354 356 357
327 328 331 332 335 338 341 344 346 350 353 353 353 353 354 356 356 356 355 354 352 351 351 351 351 350 349 350 351 352 353 353 338 328 333 314 312 310 313 319 326 342 349 349 350 350 351 352 348 330 321 315 314 316 317 317 328 319 316 319 322 329 339 344 344 346 346 347 348 349 350 352 353 354 354 357 357 362 360 361 360 359 357 354 354
324 325 327 330 333 337 340 343 344 347 351 353 352 351 352 354 354 355 355 354 353 351 351 351 350 350 350 349 350 351 352 353 353 338 325 321 313 311 312 314 317 321 343 349 350 351 338 329 326 323 321 317 315 316 317 317 314 316 316 318 330 337 339 341 343 346 345 345 347 349 351 352 354 355 359 360 361 361 360 359 360 359 358 356 354
322 324 326 328 331 334 336 339 342 346 349 351 352 352 351 352 352 353 354 353 353 352 351 351 350 350 350 350 350 351 352 352 352 352 335 327 320 313 313 313 317 318 329 344 335 333 329 324 323 322 323 325 333 335 338 339 321 317 319 325 334 339 341 343 344 344 345 347 347 347 349 352 354 358 360 360 358 357 358 357 354 351 349 349 347
323 324 325 327 329 331 333 337 342 346 348 350 351 352 352 351 351 351 352 353 353 352 352 351 350 350 349 350 351 351 351 351 352 352 352 346 340 332 320 320 316 317 326 336 337 341 339 336 337 329 332 329 331 331 333 337 337 334 332 334 337 339 341 343 345 345 345 346 346 347 350 353 357 356 356 355 354 356 358 355 353 353 349 348 347
321 322 324 325 327 329 332 339 342 343 345 347 348 350 351 351 351 350 351 352 352 351 352 351 350 350 350 350 351 351 350 351 351 351 352 349 346 344 335 330 328 328 329 333 339 344 347 339 336 344 343 343 340 342 343 345 345 344 343 339 337 338 340 342 344 345 346 347 348 350 350 353 352 353 355 353 354 355 356 352 352 351 346 342 339
321 321 322 324 326 331 334 338 340 342 343 344 347 350 351 351 351 352 354 355 354 353 352 352 353 353 353 351 350 350 350 350 351 335 350 333 343 347 343 337 336 334 329 324 339 342 344 345 346 345 345 344 344 345 345 345 345 346 347 346 342 340 340 341 340 342 343 344 345 347 348 351 351 353 353 352 352 353 352 351 350 351 346 342 341
319 321 322 324 327 329 332 335 337 339 341 342 344 348 343 329 340 353 352 340 334 330 330 351 355 355 353 354 354 352 351 353 334 323 320 319 318 322 324 322 321 331 327 318 331 341 341 341 343 343 344 345 345 345 346 346 347 347 347 339 344 343 342 341 341 342 344 343 345 346 346 348 349 351 351 350 351 352 350 344 349 348 343 339 340
319 320 322 323 325 327 329 330 332 335 339 341 342 343 347 346 318 317 330 339 329 320 315 319 324 331 350 354 349 332 332 328 322 316 313 313 313 313 313 313 312 314 315 327 334 339 341 340 341 342 343 344 344 345 346 347 347 347 348 347 346 345 341 342 341 339 340 342 343 345 346 346 345 347 347 347 349 351 349 346 348 345 344 342 341
317 318 319 321 324 326 328 330 332 334 337 340 341 342 345 347 349 324 314 316 316 312 313 313 313 315 320 332 345 352 330 318 317 312 311 312 311 311 310 309 309 310 309 317 337 338 340 341 341 342 342 342 343 344 346 346 347 348 348 347 345 343 342 340 338 340 339 340 341 340 340 340 341 341 344 347 346 349 347 343 343 342 342 343 343
316 317 319 321 323 326 329 331 333 335 337 338 339 341 343 346 347 348 344 314 308 308 307 308 309 310 311 311 314 323 327 324 314 309 308 309 309 308 309 308 308 305 308 327 339 339 339 341 342 343 342 342 344 345 346 346 347 348 349 348 345 342 342 342 337 338 337 339 340 340 340 340 339 339 340 343 346 346 345 342 341 341 340 340 341
316 317 319 322 324 327 330 331 332 332 334 337 338 340 342 344 348 350 348 347 343 327 313 306 304 307 307 309 311 310 311 316 312 310 307 308 308 308 307 313 303 301 315 336 338 340 341 340 340 342 344 344 345 345 346 347 348 349 348 347 347 346 344 344 341 339 338 338 339 339 338 340 340 341 343 345 346 346 344 341 341 339 339 340 342
316 320 325 326 324 326 327 327 328 329 332 333 336 339 341 344 347 349 351 348 347 347 349 348 320 304 321 316 308 307 307 307 308 308 308 307 307 304 308 326 325 321 320 330 339 341 342 342 342 342 344 345 345 345 347 348 348 347 347 347 345 344 344 342 341 342 342 342 341 340 340 340 342 341 342 344 345 343 343 342 341 341 342 340 340
315 317 318 319 321 323 324 324 326 328 330 333 336 338 340 341 343 348 347 348 348 348 348 351 352 326 309 308 313 310 306 305 306 303 304 304 303 309 334 337 337 333 329 329 334 339 342 343 344 345 345 345 347 347 348 348 347 348 349 347 343 343 343 343 342 343 343 343 342 341 339 343 343 343 346 347 346 345 345 343 342 339 341 341 339
314 315 316 318 320 321 322 324 325 328 330 332 335 338 339 340 342 345 349 351 349 350 350 351 344 339 328 330 319 305 303 303 303 303 303 303 302 323 344 344 342 341 335 335 335 337 340 342 344 347 347 346 346 347 348 348 347 348 340 345 342 341 342 344 345 343 344 343 345 345 344 345 346 346 345 344 344 345 345 343 341 337 336 335 332
314 315 316 318 319 320 321 322 325 328 332 334 336 338 339 340 341 343 345 347 349 349 349 350 342 348 346 343 332 329 313 301 302 304 301 300 308 327 340 345 345 344 341 340 339 338 340 343 345 346 347 348 347 347 347 347 346 346 344 344 342 342 335 340 339 343 345 346 346 347 346 347 347 347 343 345 345 344 342 339 339 337 334 330 331
314 315 315 316 318 320 321 322 327 330 332 335 338 338 337 337 338 340 342 344 346 347 347 349 349 347 349 341 330 327 325 331 334 336 329 325 325 330 335 340 344 344 344 343 340 338 340 342 343 345 346 347 346 346 346 346 345 344 344 343 342 342 340 340 341 341 342 344 345 347 348 348 348 348 346 345 344 343 340 338 336 336 335 332 333
313 314 315 316 319 319 320 324 327 326 328 328 331 336 337 338 338 339 340 341 342 343 344 345 345 348 345 335 331 331 339 339 339 344 339 331 329 330 333 336 339 341 342 342 341 340 340 342 343 343 344 345 346 345 346 345 344 343 341 340 340 340 341 341 341 342 342 344 345 346 345 344 343 342 341 340 341 339 336 334 333 334 337 336 334
312 313 318 317 317 317 319 321 321 323 324 325 325 326 328 332 336 338 339 339 340 340 341 342 343 334 332 330 315 319 340 343 343 343 341 337 334 333 333 334 335 333 331 332 332 333 332 327 327 330 333 337 343 345 345 346 344 341 340 338 339 340 341 341 341 341 341 340 342 341 339 337 336 336 335 335 331 334 337 337 335 335 335 335 333
312 313 315 316 316 316 316 316 318 319 320 321 320 321 323 323 325 331 336 338 338 339 339 339 326 319 314 307 307 308 333 341 340 339 335 330 326 320 317 315 314 315 315 315 316 315 314 315 315 315 316 315 317 321 326 331 335 337 337 337 336 335 334 333 333 334 335 335 334 334 334 333 334 335 335 327 335 333 330 331 332 332 332 331 331
313 314 315 315 314 313 313 314 315 316 316 316 317 318 318 318 318 320 322 325 324 327 328 325 319 318 314 306 310 309 327 330 330 326 323 318 314 312 309 308 307 307 306 306 307 307 308 307 305 305 305 305 306 307 310 314 321 328 330 329 328 328 328 328 329 329 331 331 331 329 330 329 328 329 330 330 331 329 328 328 327 327 327 327 325
311 312 313 313 312 312 312 312 312 313 313 314 314 314 313 313 313 313 314 314 314 314 314 314 314 313 312 310 309 313 315 313 312 310 309 308 306 305 304 304 304 304 303 303 304 304 304 303 302 302 302 302 303 304 306 308 312 319 323 323 322 321 322 323 325 327 328 329 328 328 328 327 326 326 325 325 327 326 325 326 326 325 324 326 325
309 310 310 310 310 309 309 310 310 310 312 311 309 309 310 309 309 310 310 309 308 308 308 308 308 308 307 306 306 305 305 305 305 304 302 301 301 301 301 301 301 301 301 301 302 303 303 302 302 301 300 300 300 301 302 304 306 309 314 319 318 316 316 318 321 324 327 325 324 324 324 324 324 324 323 322 322 322 320 321 322 319 319 319 319
308 308 308 308 308 308 308 307 308 307 307 307 307 307 307 306 306 307 306 305 305 304 303 304 304 304 304 303 303 303 302 301 301 301 300 300 299 299 300 300 299 300 300 301 301 301 301 301 300 300 300 300 300 299 300 301 302 303 304 306 309 311 313 316 319 322 323 324 323 323 322 322 322 321 320 318 318 317 316 316 315 316 316 314 315
307 307 306 306 306 306 306 306 306 305 305 305 305 305 305 305 305 304 305 304 303 302 300 300 300 300 300 299 299 299 300 299 298 299 298 298 298 299 299 299 298 298 298 299 299 299 299 300 300 300 299 299 299 299 299 300 300 301 302 302 304 307 309 312 314 316 317 318 318 317 316 316 316 317 317 316 315 315 314 314 314 314 314 314 315
305 305 305 305 304 304 303 303 303 304 303 303 303 303 303 303 302 302 302 301 300 300 299 299 298 298 298 298 298 297 297 297 298 298 297 297 297 297 297 297 297 297 297 297 297 298 298 297 297 297 297 298 298 299 299 300 299 299 299 300 300 301 303 305 310 311 313 315 315 315 315 314 314 314 314 314 314 313 312 312 313 313 314 314 314
304 304 304 303 303 302 302 302 302 301 300 301 301 300 301 300 299 299 300 299 299 298 297 297 297 297 297 297 297 296 296 296 294 295 295 295 295 295 296 296 296 296 295 294 295 296 296 296 297 296 297 296 297 297 297 298 298 298 297 297 298 296 294 297 302 305 304 310 310 309 310 310 310 310 310 310 309 310 310 310 310 310 310 311 311
303 303 303 302 302 302 302 301 300 300 300 300 299 299 299 298 298 298 298 297 297 297 297 297 296 296 295 296 295 295 295 294 294 293 293 294 294 294 294 293 293 293 293 293 294 294 295 295 295 296 296 295 296 295 295 295 295 296 296 295 294 293 294 295 296 299 304 305 306 306 306 306 307 306 307 307 308 307 307 307 307 307 308 307 308
303 302 302 302 301 301 301 300 300 299 299 298 298 297 297 297 297 297 297 296 296 296 296 295 295 295 295 295 295 295 294 293 293 293 293 293 293 293 292 292 292 292 292 292 292 293 293 294 295 295 295 296 295 295 295 295 294 294 293 293 291 291 293 296 298 295 298 301 305 305 306 306 306 305 305 306 307 307 307 306 307 307 307 306 307
Wind_Speed
13 13 11 12 12 12 12 11 12 10 10 10 10 9 8 8 8 8 5 6 6 7 7 7 7 7 7 7 7 7 7 6 5 5 5 5 5 5 5 5 6 5 4 4 3 4 4 4 5 4 2 3 3 2 2 2 1 2 2 3 3 3 4 4 4 7 4 3 2 4 3 3 5 0 5 5 6 5 5 5 6 5 5 5 6
14 13 11 11 13 12 12 11 11 10 11 11 11 10 9 9 8 6 8 7 7 8 8 6 6 7 7 7 7 7 7 7 5 5 6 6 5 4 5 6 6 6 5 5 4 3 4 5 5 4 3 4 3 3 3 2 2 2 3 3 4 4 3 4 4 3 8 2 4 2 3 1 4 1 3 6 7 5 6 6 5 4 5 5 5
14 12 12 12 13 12 11 11 11 11 12 11 11 11 10 10 8 9 9 7 6 7 8 8 7 7 7 7 7 7 7 7 6 6 7 7 7 6 5 6 6 6 6 7 6 4 5 5 6 4 2 4 4 4 2 3 2 3 3 3 4 4 3 4 3 4 6 7 1 3 2 1 2 6 4 3 4 4 6 5 6 5 4 5 5
13 13 12 13 13 12 12 11 11 11 11 11 12 12 10 9 8 9 9 7 7 7 7 7 7 7 7 7 8 8 7 7 7 7 8 8 8 8 7 7 6 7 7 7 6 6 7 6 6 4 4 5 5 4 3 3 3 3 4 3 4 4 3 4 5 4 3 7 4 3 3 4 4 3 3 4 4 4 3 4 5 5 6 5 4
13 13 13 12 13 13 13 11 12 13 12 10 12 11 11 9 8 10 9 9 9 8 7 7 7 7 8 9 9 9 9 8 8 7 7 7 7 7 7 7 7 7 7 7 6 7 7 8 7 5 5 6 5 5 4 5 4 3 4 3 4 3 3 4 4 3 4 6 5 3 2 3 3 4 2 4 3 4 3 4 4 6 5 5 4
13 13 13 13 13 13 13 13 13 13 13 12 12 12 10 10 10 8 10 11 10 9 9 8 8 9 9 9 9 9 8 8 9 8 7 7 7 6 6 7 7 7 7 7 7 7 7 8 7 6 6 7 7 6 5 6 4 4 5 4 4 3 3 3 3 3 4 5 5 6 2 4 4 3 2 1 4 7 5 2 3 4 4 6 6
12 13 13 14 13 13 14 14 13 13 13 13 11 11 11 10 10 10 9 10 10 8 9 10 9 9 9 9 9 9 9 8 8 9 8 8 8 7 7 7 7 7 7 8 7 7 8 7 7 7 8 8 8 7 6 5 5 6 6 5 4 4 4 4 3 4 4 4 4 5 5 3 3 6 1 1 3 4 6 6 3 2 2 4 7
13 13 13 13 13 14 14 14 13 13 12 11 11 12 11 11 11 11 9 10 9 11 10 11 10 9 10 10 9 8 8 8 8 9 8 8 7 8 8 7 8 7 7 7 7 7 8 8 8 8 8 8 8 7 6 6 5 6 5 5 4 4 5 4 3 4 4 4 5 5 3 4 3 4 3 3 4 2 2 2 7 6 4 2 4
13 14 14 14 14 14 13 12 11 11 12 11 11 11 11 11 10 10 10 10 9 10 11 10 10 10 9 10 9 9 9 9 8 9 9 9 8 8 8 8 8 8 7 8 7 7 8 8 8 8 9 11 12 11 9 8 6 6 6 5 5 5 5 4 4 4 4 4 5 4 4 5 5 4 5 4 4 6 2 1 4 5 5 5 4
13 14 15 15 14 13 13 12 11 11 12 12 12 12 11 10 10 11 11 11 10 10 9 10 10 11 10 10 10 9 9 8 11 16 14 10 9 8 8 9 9 8 8 7 7 8 8 8 8 13 14 14 14 14 14 13 12 9 7 6 6 5 5 5 5 4 4 5 5 5 5 6 5 4 4 5 4 3 4 3 5 4 4 5 4
14 15 16 15 14 13 12 12 12 12 13 12 11 11 12 11 10 10 10 10 10 10 9 11 11 10 11 11 10 8 8 8 16 16 17 18 12 10 10 10 9 8 8 9 8 8 8 8 7 10 12 13 13 15 14 14 14 14 14 11 8 7 6 6 6 5 5 6 5 4 5 7 7 4 5 6 4 5 4 3 4 3 3 5 7
15 15 15 14 13 13 13 13 13 13 12 13 12 12 11 10 10 10 10 11 10 9 10 11 11 10 9 10 10 9 10 13 17 18 18 18 16 11 8 8 8 8 8 8 8 7 8 7 7 6 7 9 8 8 11 14 15 15 15 14 13 13 12 9 8 5 6 6 6 7 6 7 7 4 5 4 6 4 4 3 4 4 4 4 4
14 14 14 14 14 13 13 13 14 13 13 13 12 11 12 12 12 12 13 12 10 10 11 11 11 11 11 11 12 12 10 14 18 19 18 18 19 15 9 9 8 8 9 9 9 8 7 7 7 6 7 14 11 9 7 8 11 15 14 14 15 15 14 15 13 11 6 6 7 8 7 6 7 7 5 5 2 5 2 3 3 4 4 5 5
12 14 14 15 14 14 14 14 14 14 13 12 12 12 12 13 13 11 11 10 10 12 11 12 12 11 12 12 12 11 12 14 18 19 19 19 19 15 10 10 9 10 11 9 8 9 10 9 8 7 7 8 8 8 7 8 6 6 7 7 7 10 13 16 16 16 12 8 7 9 11 6 9 10 6 4 5 7 6 6 4 5 5 7 5
7 9 12 13 13 13 14 14 14 14 13 12 12 12 13 12 12 11 9 10 12 12 13 13 12 13 13 12 11 11 11 16 17 19 20 20 20 15 10 10 9 10 10 11 11 11 11 10 9 9 9 7 7 8 8 7 6 6 7 7 8 7 8 8 9 8 8 8 10 11 10 7 8 9 7 5 8 8 7 8 5 4 4 3 4
9 9 9 7 9 12 13 13 13 12 12 12 12 13 12 13 13 12 10 10 10 10 9 10 11 13 13 12 11 14 12 17 18 19 20 20 19 10 9 11 11 10 11 11 11 11 11 11 10 9 10 9 11 14 12 8 7 7 8 7 7 7 7 10 11 10 9 9 9 10 10 10 10 10 8 6 6 6 4 2 1 2 3 5 6
10 10 10 9 10 10 8 10 11 11 11 12 12 13 13 13 12 10 11 10 10 10 12 10 10 11 12 13 14 13 13 15 18 20 20 20 14 10 10 10 10 12 12 12 11 11 11 11 10 8 9 10 11 14 14 12 7 8 8 7 6 6 8 7 11 14 15 14 15 15 16 15 15 15 14 11 9 4 2 3 6 4 5 7 6
7 5 4 4 5 5 8 9 9 10 10 12 13 12 12 10 11 10 11 10 11 12 11 11 11 11 13 13 13 13 12 14 17 19 20 19 16 11 11 10 11 11 12 12 10 10 12 16 13 11 11 11 13 14 15 12 8 8 7 7 8 8 9 6 3 6 12 14 15 16 16 16 16 16 15 13 12 6 6 8 7 3 6 6 9
5 5 6 6 6 5 6 10 11 10 10 12 12 12 12 12 11 10 10 10 11 10 10 10 10 10 12 13 16 16 13 14 17 19 20 19 17 11 10 10 11 10 9 12 11 10 10 12 16 15 13 13 16 15 15 12 9 9 8 7 8 9 9 9 7 6 5 5 7 7 8 11 10 8 10 15 12 11 9 10 6 6 7 7 7
3 3 5 7 7 6 6 6 8 10 11 11 10 11 10 8 9 10 10 10 10 9 10 10 12 11 11 12 11 12 13 14 14 19 20 20 21 14 10 10 12 13 11 11 10 10 10 9 12 16 18 17 17 16 15 16 11 8 7 7 8 11 9 8 8 7 8 7 7 7 8 7 6 6 6 6 6 10 10 9 9 8 7 7 6
7 5 4 5 7 9 8 7 7 8 9 10 10 10 10 11 10 12 11 9 10 11 11 11 11 13 12 12 11 12 13 14 14 18 19 20 21 18 11 13 13 12 11 10 9 9 9 9 9 13 18 19 18 17 15 16 15 10 8 9 10 13 10 7 9 11 8 8 8 7 6 6 5 5 5 5 6 6 8 9 9 9 8 7 8
7 7 7 6 7 8 10 10 8 7 8 9 9 11 11 11 11 11 10 11 13 13 13 11 11 12 11 12 13 13 14 18 14 15 19 20 21 23 13 13 14 12 11 10 9 9 11 9 9 12 17 18 18 18 18 15 17 10 12 15 17 15 12 10 7 4 5 6 6 6 6 6 6 5 5 6 7 7 7 7 8 9 9 9 8
7 7 7 7 6 6 9 12 11 7 7 8 10 11 10 11 12 12 12 13 13 14 13 12 13 12 12 11 11 12 12 12 18 15 17 20 21 23 24 18 18 13 12 12 12 12 10 10 11 14 16 17 18 19 17 17 12 11 18 17 17 16 11 5 7 7 6 7 6 7 7 6 6 6 6 7 7 6 7 7 7 8 8 8 7
7 7 7 7 6 6 6 9 12 9 9 8 9 11 11 11 11 11 12 12 12 13 12 12 12 12 12 11 10 11 11 11 13 18 16 20 21 24 25 24 19 14 13 11 11 9 10 11 11 15 17 18 18 18 17 14 12 17 17 17 16 12 5 5 6 8 8 7 7 7 8 7 6 7 7 6 7 5 6 6 6 6 7 6 7
8 8 8 7 6 6 7 8 11 11 8 8 9 10 12 11 11 11 11 12 12 12 12 11 13 13 12 13 11 10 10 11 11 14 20 19 22 23 24 24 22 19 14 12 11 10 13 15 16 17 17 17 18 15 12 12 15 14 16 18 13 4 6 6 7 6 7 8 8 8 8 8 8 7 6 5 5 4 4 5 5 6 7 6 5
9 9 10 9 7 7 9 11 11 10 9 8 9 9 11 10 12 11 11 11 12 12 12 11 12 12 12 11 12 11 10 10 12 11 11 16 17 21 23 23 23 22 21 16 17 18 17 16 17 17 13 11 8 6 8 10 14 16 15 11 5 6 6 7 7 8 9 8 8 9 8 6 6 6 5 4 5 7 6 5 4 4 4 4 3
10 9 10 11 11 10 9 8 8 9 8 8 9 9 10 10 11 11 11 11 12 12 12 12 12 11 13 11 11 10 11 11 11 11 10 9 8 11 13 14 19 18 13 11 13 12 13 10 7 8 8 12 12 10 8 6 6 7 6 6 6 6 7 7 8 9 9 8 7 7 6 6 3 2 5 5 8 8 5 6 6 6 4 3 4
9 9 11 11 11 10 10 12 11 9 8 8 8 9 10 10 11 12 13 13 14 13 13 12 13 13 12 12 11 10 12 11 12 12 12 9 10 11 10 9 8 9 9 10 9 10 10 6 6 5 4 3 4 3 4 4 6 6 6 5 6 7 8 7 7 6 6 7 7 5 5 4 6 6 5 7 9 6 5 7 7 6 4 4 3
10 10 11 10 11 10 10 10 9 9 9 9 9 9 9 10 12 12 14 13 13 13 13 13 13 13 12 13 12 12 12 13 14 14 14 16 15 10 8 10 10 9 16 19 10 8 6 5 5 5 5 6 5 5 5 5 6 6 6 5 5 5 5 5 6 7 8 7 7 7 7 6 6 6 8 8 9 8 5 6 5 6 2 4 6
10 9 8 9 10 10 10 10 10 9 9 9 9 9 12 16 13 12 12 16 20 20 16 14 15 13 13 14 13 15 14 16 20 20 20 20 20 20 18 17 17 15 17 18 12 7 7 7 9 8 7 6 7 7 8 7 7 6 5 6 5 5 5 5 6 6 6 7 8 6 7 6 7 7 9 9 8 7 7 7 7 6 6 6 6
9 7 7 8 9 10 10 11 10 10 9 9 8 9 10 10 18 21 19 16 17 20 20 21 19 16 14 12 13 20 20 19 15 14 17 17 18 19 18 17 17 18 12 10 6 8 7 9 8 8 8 8 8 8 7 8 7 6 5 5 4 5 5 5 6 7 9 9 8 7 5 5 7 7 6 7 7 7 6 6 6 6 7 6 7
8 8 7 7 10 11 10 10 11 10 10 9 8 8 9 10 9 12 17 16 14 15 19 21 20 18 18 18 13 10 16 20 17 14 17 18 19 19 18 18 18 18 16 19 10 8 9 10 8 8 8 8 9 8 8 8 6 6 5 5 7 8 8 9 11 11 10 7 5 4 5 7 8 9 9 8 8 7 6 5 6 7 7 7 8
10 9 9 9 10 11 11 10 9 8 8 9 10 8 9 9 9 9 9 7 8 10 12 16 19 19 18 18 18 17 15 14 15 12 15 17 18 18 19 19 19 15 13 9 11 9 9 10 9 8 8 9 8 8 8 7 6 6 7 8 9 10 10 10 8 6 4 6 7 8 8 8 8 8 9 11 8 7 5 5 6 7 6 7 8
11 10 9 9 10 10 10 9 9 9 8 9 9 10 9 9 10 10 8 7 8 9 11 14 15 16 17 19 19 18 16 11 15 17 16 17 18 18 15 7 6 12 16 13 11 11 8 8 9 8 7 7 7 7 7 6 7 8 8 10 9 7 7 6 7 8 6 7 8 7 5 6 7 8 8 9 7 6 5 7 7 7 9 9 9
9 13 19 14 8 9 9 10 9 9 9 9 10 10 10 9 10 10 10 10 10 11 12 13 13 15 16 16 19 19 16 13 14 17 18 17 16 12 12 7 5 3 5 7 7 8 8 8 8 8 8 7 8 9 10 9 8 9 10 8 6 6 7 7 9 9 8 8 8 7 7 8 9 8 8 8 6 6 6 7 9 9 8 7 7
9 8 9 10 9 9 9 10 10 9 9 9 9 10 10 9 10 10 10 10 10 11 11 10 8 8 15 15 7 6 8 8 9 10 13 13 14 19 9 8 7 7 8 8 9 10 9 10 9 7 7 8 9 9 9 9 10 9 6 6 7 8 10 9 8 7 7 7 8 8 7 8 9 8 8 8 8 8 7 9 9 8 9 8 6
9 8 8 9 9 9 10 11 11 10 10 10 10 10 9 9 9 9 10 9 10 10 10 8 2 2 1 4 6 6 9 11 10 9 10 13 18 15 12 12 11 10 9 9 10 9 8 8 8 8 9 9 9 9 8 7 7 8 8 9 10 10 9 8 7 7 7 7 7 7 9 9 9 8 9 10 9 7 7 8 9 8 7 7 5
11 10 9 9 10 10 11 11 12 13 11 10 10 9 8 8 8 9 9 10 9 9 9 7 5 7 9 7 7 5 5 7 11 9 7 7 8 8 9 10 10 11 11 10 10 9 10 11 10 10 9 8 8 7 7 8 8 8 8 9 8 8 9 8 8 7 7 7 7 8 8 8 8 8 8 10 10 8 8 8 7 6 5 7 7
8 12 14 16 14 10 9 11 11 8 7 7 7 8 8 8 8 8 8 9 8 8 7 7 8 8 7 3 5 6 9 5 6 8 8 7 7 9 10 10 10 10 9 9 9 9 9 8 6 6 5 6 8 8 8 8 8 8 7 8 9 7 7 7 8 8 7 7 7 8 8 8 7 7 7 8 9 8 7 8 8 7 6 7 9
8 8 9 13 9 10 10 10 9 7 5 5 5 5 7 8 8 8 8 7 8 7 7 7 7 7 1 5 5 7 7 8 9 8 7 8 8 9 9 10 10 9 8 7 7 7 8 6 5 6 7 7 7 9 9 9 9 10 9 8 8 8 9 8 8 7 6 6 6 7 7 6 5 5 5 4 5 4 4 5 5 6 6 6 6
7 8 10 7 8 9 9 8 7 7 5 3 3 4 5 6 6 7 7 8 7 7 6 6 5 2 1 5 11 12 8 8 7 7 6 9 9 8 8 6 5 4 3 3 3 4 4 5 4 5 6 7 8 9 8 6 7 6 6 7 7 6 5 5 4 3 4 5 6 6 5 5 4 4 4 7 8 6 6 6 5 5 5 5 5
7 8 7 6 6 6 6 7 7 8 5 4 3 4 4 4 5 5 6 7 8 8 8 5 1 2 2 7 13 16 10 7 7 7 6 5 4 2 2 2 3 3 3 4 5 6 6 5 4 4 5 5 5 4 3 2 3 7 8 9 9 8 7 6 5 4 5 5 4 5 5 5 5 5 6 4 4 3 3 4 4 5 5 5 5
6 7 6 6 6 6 5 6 6 5 5 5 4 4 4 4 5 5 6 7 7 6 5 5 4 4 5 9 4 10 7 6 4 5 4 4 4 4 4 4 5 6 7 7 7 8 8 8 7 7 6 6 6 6 5 3 2 2 2 2 3 5 5 6 5 5 4 4 4 4 4 5 5 5 5 5 5 5 4 4 3 3 3 3 3
5 5 5 5 5 5 5 5 5 5 4 5 6 6 6 6 6 6 7 7 7 7 7 7 6 6 6 8 9 8 6 7 8 8 8 8 9 9 8 7 7 8 9 8 7 8 9 10 10 8 8 8 7 7 7 6 6 4 4 6 6 6 5 5 6 5 5 5 6 6 5 4 3 3 5 5 4 3 3 3 3 3 3 3 3
4 4 4 4 4 4 4 4 4 5 5 5 5 6 6 7 7 7 7 7 8 8 7 7 7 8 8 9 10 9 10 10 10 10 11 10 10 10 8 7 6 6 8 7 7 9 10 10 10 10 10 8 8 8 8 7 7 6 5 3 6 7 6 6 5 5 6 8 8 8 6 4 4 5 6 6 6 5 4 4 4 4 6 4 4
3 3 4 4 4 4 4 4 5 5 5 6 6 6 6 8 7 6 7 8 8 8 8 9 9 9 9 8 8 9 9 9 8 8 10 9 10 9 7 6 7 8 8 7 8 10 10 10 10 10 10 9 8 9 9 8 6 6 6 6 6 5 4 5 7 8 7 7 7 8 7 6 5 5 7 7 6 5 5 4 4 5 4 4 4
3 3 4 4 4 4 5 4 4 5 6 6 7 7 6 6 7 7 8 10 9 9 10 10 10 10 10 10 10 9 9 9 8 8 8 10 9 8 8 7 8 9 9 9 9 10 10 10 9 10 10 9 9 10 9 8 8 8 8 7 7 8 8 8 8 8 8 7 7 8 7 6 6 6 7 6 6 6 6 6 5 5 5 4 4
3 4 4 5 5 4 5 5 6 7 7 7 8 7 7 7 7 8 8 9 9 10 10 11 11 10 10 10 9 9 9 9 9 10 10 9 9 9 8 7 8 9 10 11 11 10 9 9 10 10 10 10 9 9 9 8 7 8 9 9 9 9 10 10 9 9 8 8 7 7 6 7 7 7 6 7 7 5 6 5 5 5 6 6 6
4 5 5 5 5 5 5 6 6 6 6 7 8 8 8 8 9 9 10 10 11 12 13 13 12 10 10 11 10 10 10 11 9 8 8 8 8 8 8 7 8 8 11 12 12 10 9 9 9 9 8 8 10 10 9 8 8 8 9 8 12 18 19 17 11 9 10 9 9 8 8 9 9 9 9 9 8 7 7 7 7 7 7 7 6
5 6 6 6 6 5 5 5 5 6 7 7 8 8 9 9 9 9 10 11 12 12 11 12 11 10 11 11 11 11 10 11 10 10 10 9 8 9 9 9 9 9 10 11 10 8 8 8 10 9 9 9 9 9 9 8 6 6 4 8 17 21 21 21 19 16 13 9 8 7 9 10 10 10 9 9 8 9 9 8 7 7 7 7 8
5 6 7 7 6 5 6 6 6 7 8 8 8 9 9 9 9 9 10 11 11 11 10 10 10 12 11 11 12 10 10 10 10 11 10 9 8 10 12 11 10 9 10 9 9 9 9 9 9 9 10 11 10 9 9 8 6 6 12 18 20 20 22 20 16 16 17 13 9 7 9 9 10 10 9 8 8 9 9 8 7 7 7 7 7
Wind_Direction
194 198 192 196 194 194 196 196 202 201 197 193 195 199 198 199 202 210 193 204 196 194 199 198 197 204 205 208 207 207 211 209 195 187 194 203 197 194 187 191 209 226 221 220 206 200 206 224 239 246 249 268 267 273 269 251 192 203 184 177 195 183 177 181 234 276 275 224 255 272 300 305 304 310 312 308 321 333 332 307 314 310 306 306 304
196 195 194 195 197 198 197 196 199 199 201 198 200 197 195 196 198 187 198 209 194 202 205 199 197 199 204 214 215 211 209 212 192 184 201 206 207 190 195 192 201 217 214 239 216 211 210 224 235 237 209 234 252 255 249 249 233 218 206 203 212 202 201 189 225 242 289 256 276 253 276 176 281 238 301 317 316 332 322 313 306 300 303 307 306
195 192 192 193 198 199 196 196 194 198 202 205 206 202 196 195 184 189 199 202 195 204 208 205 199 197 206 214 215 215 212 206 192 192 207 208 208 207 201 198 204 208 211 221 215 205 220 227 239 220 209 235 233 240 228 236 214 217 226 202 218 218 190 208 203 256 273 292 253 296 268 284 251 296 300 283 288 296 298 306 313 308 298 298 302
193 194 194 198 198 196 197 197 193 196 201 206 211 210 203 195 183 190 195 189 190 201 205 206 200 196 203 211 215 218 214 209 197 201 208 205 209 213 202 202 207 212 215 215 208 203 215 226 235 213 210 231 241 239 227 223 218 211 222 216 215 222 205 184 212 230 271 290 279 258 289 305 281 247 271 274 283 287 279 290 285 287 300 302 303
192 195 194 195 196 198 200 197 198 199 202 204 210 210 210 200 192 194 186 190 194 191 199 196 198 196 202 206 213 216 216 211 208 207 212 210 214 214 208 206 210 213 214 213 211 202 210 224 231 204 198 224 240 235 228 235 226 219 231 220 212 220 207 204 208 196 236 263 282 256 272 270 261 292 279 305 291 270 256 273 288 292 295 299 305
195 194 195 197 200 200 201 200 201 202 204 205 208 207 205 206 202 201 193 195 192 192 194 190 195 201 206 209 211 218 217 213 215 215 213 209 213 214 212 212 217 216 215 211 209 204 211 217 222 203 205 214 232 231 222 229 219 229 238 233 221 207 220 220 203 215 221 249 264 292 259 287 297 264 292 286 310 314 299 244 272 275 298 315 317
194 196 197 200 201 202 202 204 202 204 205 207 207 207 207 204 201 203 199 201 195 191 192 192 195 198 205 204 209 214 215 211 215 218 219 216 213 214 212 213 218 217 218 216 211 211 214 216 215 207 210 214 223 228 222 218 217 230 226 237 227 218 234 227 211 221 226 250 259 247 277 258 246 289 275 245 266 260 293 309 279 210 282 314 310
194 197 198 202 204 205 206 204 204 205 206 204 206 208 207 207 207 206 198 202 203 203 198 196 197 195 200 201 206 205 211 213 213 218 219 216 211 214 214 213 218 220 223 219 216 214 214 218 218 213 214 215 216 222 207 221 206 229 223 212 212 214 231 230 224 226 238 242 250 272 253 281 272 247 279 297 295 269 218 284 311 316 318 306 286
196 197 199 202 205 205 204 204 205 205 204 204 207 208 208 207 206 206 204 206 206 208 207 204 200 200 201 200 201 199 205 213 212 212 217 217 214 217 216 215 216 220 224 224 218 217 219 218 219 219 216 222 218 222 219 212 206 221 222 192 204 209 223 229 230 228 237 242 263 246 262 267 259 279 291 265 240 276 281 284 281 289 305 307 288
196 199 202 206 205 203 201 202 202 201 201 204 206 206 207 207 206 208 209 210 210 206 207 208 208 206 204 205 203 201 208 212 214 211 211 216 214 218 221 221 221 222 226 227 224 220 223 221 225 224 222 223 224 224 226 222 219 220 225 185 202 200 211 224 227 226 232 244 249 257 270 268 264 236 258 250 261 268 279 266 278 298 310 285 265
198 200 205 206 203 200 199 202 199 201 203 204 204 204 207 206 207 209 211 211 211 208 206 209 212 212 210 208 206 206 207 210 213 209 211 213 214 217 219 223 220 220 219 224 227 221 223 224 228 230 230 229 226 225 225 224 224 227 231 224 206 201 210 215 227 220 223 236 243 242 246 267 269 237 243 269 256 250 261 262 270 298 305 330 317
200 203 206 204 200 199 201 199 199 204 201 203 202 203 203 204 207 208 210 211 212 207 210 213 215 215 214 214 213 212 216 214 208 210 210 211 212 216 215 221 219 218 217 218 225 223 224 222 224 222 221 223 226 223 223 224 224 225 229 231 230 225 219 218 229 228 215 229 237 238 243 246 268 251 254 249 260 245 230 224 228 250 274 271 273
203 205 205 201 201 200 199 198 202 203 203 202 201 198 199 203 207 208 210 211 205 206 213 214 216 216 217 218 221 219 221 209 207 208 211 211 210 212 221 219 218 219 218 218 222 225 223 223 225 220 224 225 225 223 219 224 221 223 226 229 232 230 231 232 231 232 227 220 231 246 229 240 254 252 212 235 186 260 206 215 212 224 232 256 259
211 207 204 202 202 199 197 199 201 204 203 201 200 201 201 206 208 208 210 205 205 211 212 214 216 214 216 220 223 224 224 215 204 206 210 211 210 206 221 219 221 225 225 221 220 222 224 224 224 228 217 218 222 217 213 220 218 209 211 213 220 230 229 228 231 234 232 230 228 239 248 199 239 254 239 192 223 257 256 258 219 241 233 243 253
273 230 212 209 204 199 198 199 202 202 201 199 199 202 204 208 208 208 205 205 207 212 212 213 215 215 218 218 222 225 225 216 203 204 208 209 210 202 215 221 224 228 228 227 226 225 226 223 225 228 231 217 212 210 211 214 212 217 219 220 218 219 216 218 215 212 210 221 229 235 248 233 237 250 252 207 223 242 246 260 261 250 271 287 273
7 9 342 287 231 207 202 203 204 202 199 198 199 203 205 205 207 205 207 212 215 217 219 220 218 219 220 219 222 230 229 215 206 204 205 208 206 196 207 219 223 227 229 229 228 228 227 225 225 226 232 230 222 210 213 210 207 220 225 231 233 229 230 228 221 216 212 210 213 227 238 240 238 245 242 222 222 236 246 252 195 207 259 272 272
19 20 8 351 334 309 261 218 207 203 201 200 203 205 206 207 209 202 208 211 210 211 217 213 218 219 219 219 222 229 235 219 207 206 204 204 194 198 208 215 223 227 231 229 228 227 225 224 221 223 226 232 225 209 212 208 213 218 226 235 238 244 250 237 214 219 224 224 228 234 242 248 248 249 251 241 237 218 195 254 248 225 241 261 265
33 25 359 329 299 285 296 288 250 217 205 206 207 209 208 208 208 200 207 208 212 215 212 218 219 218 219 220 217 225 231 222 206 208 206 198 190 196 204 208 220 225 233 233 230 229 227 220 216 222 227 232 226 214 208 199 216 219 224 232 243 250 257 247 213 221 219 227 234 239 244 250 254 256 256 248 230 207 204 234 239 185 236 234 265
19 0 337 323 314 298 229 217 235 233 218 214 212 211 208 207 207 202 208 211 218 218 216 220 221 221 220 220 221 222 231 228 206 208 205 197 193 203 199 203 216 222 224 234 231 231 232 227 222 221 222 228 224 217 206 194 212 215 217 223 234 244 247 259 246 239 221 224 240 235 249 243 242 238 243 244 222 207 215 230 235 216 237 239 247
349 340 335 322 314 306 311 284 235 225 219 217 214 213 210 207 203 203 208 211 217 215 218 219 222 223 220 222 222 219 226 233 214 205 203 198 193 197 197 200 215 220 221 224 232 230 231 233 226 222 223 226 225 217 206 198 208 217 207 219 229 242 246 244 238 233 248 232 249 239 243 241 230 226 229 228 209 201 214 219 224 219 226 238 240
323 336 320 318 317 315 305 295 281 250 228 219 214 213 210 212 208 211 212 209 216 221 219 220 222 228 224 224 224 222 223 229 225 201 204 197 196 194 200 207 213 215 216 220 223 228 229 225 229 217 218 225 228 224 211 205 210 216 212 222 224 237 247 247 246 238 243 246 245 246 248 246 241 236 231 222 215 206 207 217 217 216 213 221 241
319 326 324 319 319 311 302 291 285 274 246 226 215 214 211 209 210 210 211 212 216 220 221 221 224 228 228 226 225 228 225 222 229 208 202 199 195 196 203 211 210 209 214 221 222 228 229 225 225 219 215 220 225 227 219 208 211 211 225 226 233 237 243 244 257 254 245 251 254 252 251 250 249 242 236 231 226 216 212 210 211 216 211 216 215
318 315 304 295 288 292 304 298 284 277 259 235 225 222 214 212 211 210 210 212 215 219 220 221 225 229 231 229 227 227 226 224 218 218 203 200 196 199 207 213 206 206 212 219 220 225 224 225 227 222 214 216 220 225 224 211 204 218 228 232 234 236 241 254 254 254 251 248 248 255 254 251 253 247 240 239 234 219 224 218 213 208 216 224 227
316 301 288 281 279 279 283 282 278 273 266 249 229 224 221 216 214 212 212 213 215 218 221 220 223 228 228 230 228 226 224 226 215 214 210 200 200 201 208 215 205 207 212 222 220 219 221 221 223 220 214 214 217 222 226 209 208 218 226 235 239 238 235 242 246 246 251 253 247 248 249 244 245 246 242 236 242 224 226 225 223 213 218 221 222
316 306 294 285 281 278 270 260 263 268 267 257 240 227 223 217 216 215 213 216 216 218 221 217 221 225 227 230 229 227 222 221 226 211 209 203 203 204 209 211 215 209 213 223 223 222 222 215 216 217 217 215 216 221 228 224 220 224 225 230 230 206 213 217 229 233 240 238 238 242 248 243 236 239 241 241 237 235 228 230 223 224 222 219 216
315 310 300 291 278 253 255 262 261 264 261 257 250 232 225 217 218 216 214 218 217 219 221 219 224 225 227 228 228 227 221 222 226 220 205 209 207 208 208 209 213 213 216 222 218 222 222 216 214 218 219 218 209 199 205 215 214 219 229 229 207 211 204 210 217 222 235 234 236 240 241 245 244 236 234 225 224 228 222 223 200 213 195 193 191
312 308 298 296 292 284 269 255 264 269 267 265 251 240 228 220 219 219 216 215 218 219 219 218 223 224 229 228 227 223 224 224 224 223 210 200 194 204 211 218 219 218 223 236 236 233 235 229 215 204 208 204 207 213 215 216 208 214 212 206 207 210 209 210 212 219 230 239 246 246 245 251 263 237 223 210 235 237 214 224 218 224 186 204 201
300 303 298 295 290 285 280 276 273 272 273 269 264 252 232 220 220 217 213 214 215 219 217 215 219 220 224 225 221 218 222 224 222 219 214 197 203 204 196 193 183 185 207 217 217 225 229 209 190 182 183 161 195 185 205 202 213 213 209 190 205 212 221 231 244 248 252 244 253 258 260 237 237 231 225 229 237 228 193 210 218 223 183 143 175
304 299 295 290 287 287 285 285 282 280 278 278 269 258 251 232 225 225 222 219 216 213 211 214 213 216 218 220 214 219 222 224 225 212 207 199 200 199 181 192 191 195 212 211 206 220 221 211 208 201 194 202 191 204 203 207 218 215 206 194 199 200 200 193 215 223 230 234 236 234 243 241 241 234 235 233 234 233 193 206 211 228 183 181 216
294 289 286 284 285 289 292 292 290 285 279 277 282 277 252 243 236 228 230 224 225 225 216 214 212 210 214 218 209 213 216 221 221 203 202 202 202 202 205 198 199 200 211 202 197 198 197 208 212 208 207 200 207 207 211 209 219 212 205 210 208 202 207 213 231 245 248 244 246 241 239 234 240 234 234 230 238 231 217 208 223 217 205 201 217
288 284 287 287 288 289 288 285 283 281 278 280 281 283 289 265 243 237 236 232 221 225 226 230 231 220 211 222 219 220 230 236 229 199 201 202 202 206 207 201 196 206 183 122 174 202 205 209 212 209 214 210 213 215 212 216 219 212 208 191 198 210 209 214 210 211 221 221 220 230 272 320 308 305 275 253 240 230 222 214 221 213 212 206 214
285 284 280 275 277 276 272 274 280 285 290 288 282 287 283 276 260 241 236 239 249 237 228 229 231 227 221 219 220 226 230 233 224 195 195 198 202 205 205 203 202 194 180 170 177 198 207 209 206 208 202 206 211 213 215 218 209 200 191 179 190 194 194 204 211 215 225 227 222 191 194 220 245 262 263 259 248 237 221 209 206 207 212 214 218
292 290 289 291 290 286 281 280 282 282 288 291 292 288 285 286 276 267 250 236 241 254 255 242 234 230 228 230 225 222 220 218 218 205 201 201 200 203 205 203 202 183 144 167 207 207 207 209 212 207 201 205 204 205 213 213 197 187 190 196 195 200 204 217 215 239 246 233 218 212 194 196 205 230 243 243 236 229 210 201 209 208 205 211 218
292 290 290 291 293 289 290 294 296 298 297 297 293 287 282 280 280 272 259 240 246 257 249 237 233 234 237 231 229 232 237 218 194 201 203 203 200 204 198 186 133 162 179 194 198 215 197 204 209 210 204 204 200 198 207 196 186 189 198 207 209 199 205 200 206 220 215 223 229 241 228 212 203 200 219 241 238 226 212 211 206 202 208 213 222
289 292 298 303 297 296 298 298 294 288 287 285 286 285 285 285 279 269 252 242 234 231 234 238 227 206 219 228 232 232 228 219 206 203 199 199 198 163 122 119 142 192 236 249 215 213 213 208 208 207 205 198 201 203 207 191 183 196 205 200 193 199 205 202 212 211 212 216 223 219 212 224 228 217 214 228 221 212 213 209 216 210 210 213 221
293 291 295 301 299 297 293 288 279 273 275 274 272 273 278 281 280 274 259 248 241 237 247 239 239 215 222 238 258 223 210 219 222 210 209 195 159 143 170 189 189 195 199 203 207 209 212 216 209 203 195 206 204 207 201 190 197 201 184 171 190 200 207 208 213 217 218 222 227 225 217 224 227 220 211 215 215 215 211 215 216 209 203 204 209
302 302 305 306 304 301 296 288 277 269 263 262 261 266 269 274 274 276 271 257 245 245 247 252 263 291 50 201 169 148 172 185 186 179 183 175 173 178 205 199 203 198 193 198 198 204 206 214 212 208 205 205 205 205 196 196 188 184 170 177 193 207 213 211 207 204 212 224 233 228 224 221 217 208 207 217 219 216 215 211 215 205 197 194 185
299 301 303 307 305 297 292 286 279 272 265 254 253 250 257 268 274 278 276 265 261 256 252 244 225 236 230 232 149 165 102 107 104 84 88 108 167 213 220 219 210 205 204 202 196 198 209 212 209 211 206 201 200 193 191 194 184 180 180 191 200 217 213 209 201 202 206 217 231 235 229 230 226 219 210 218 220 213 209 203 203 215 191 173 183
295 294 295 294 289 288 288 286 279 281 289 286 256 244 245 251 258 263 266 269 269 261 259 254 245 242 245 90 137 132 129 167 190 200 187 193 188 197 214 220 221 218 212 201 192 197 207 203 197 192 188 190 193 191 192 190 184 186 179 182 201 208 209 220 217 206 199 203 215 223 227 230 227 220 212 220 228 219 201 202 199 198 190 191 204
298 298 293 290 297 302 300 292 295 291 293 309 317 296 260 247 250 255 258 263 264 264 259 253 250 254 201 131 148 161 184 201 206 210 198 194 200 204 204 213 217 217 207 186 182 186 191 186 166 176 189 189 185 193 196 191 186 190 185 186 193 208 213 210 209 202 200 205 214 221 221 221 215 213 212 199 257 208 193 211 201 196 191 199 198
294 294 298 304 302 303 300 302 298 296 306 320 327 330 333 315 284 259 255 258 260 261 257 256 266 28 102 168 169 182 201 213 215 221 211 205 208 212 211 214 203 161 131 113 102 94 105 111 121 166 182 193 198 197 198 182 182 173 178 183 194 208 205 201 196 203 199 194 205 205 193 182 179 169 195 187 203 191 174 175 182 191 195 194 177
296 293 299 303 308 311 309 310 309 313 320 334 6 354 343 343 340 324 280 249 245 245 249 244 50 4 319 182 180 192 204 217 201 202 197 180 174 132 78 80 48 65 87 95 105 108 103 97 79 52 34 21 10 8 25 71 156 169 183 192 189 176 162 159 160 165 173 175 153 156 165 163 160 173 188 179 170 151 137 172 179 176 177 176 178
297 299 308 312 321 319 320 317 317 323 349 0 11 13 10 15 23 23 26 24 21 14 21 40 42 28 24 348 248 209 214 210 179 160 125 106 91 87 82 76 74 75 84 92 96 103 105 99 80 64 56 42 32 26 23 9 327 113 145 93 100 121 127 132 122 115 112 117 107 109 116 131 141 160 148 143 139 136 133 121 127 138 133 143 151
310 310 315 322 328 328 330 333 332 339 359 27 29 31 33 41 46 38 41 49 45 43 48 48 47 42 32 15 12 14 15 27 43 51 55 50 46 46 43 51 65 77 80 78 80 90 96 96 90 79 67 60 48 40 29 14 1 32 101 128 125 104 92 83 87 87 91 86 77 66 52 54 82 102 88 72 66 79 86 98 101 114 127 124 124
320 324 328 331 334 340 347 356 352 348 17 36 46 39 37 50 50 51 50 51 54 56 48 48 51 51 47 41 38 35 29 28 37 42 50 59 64 62 57 50 42 45 59 63 67 77 81 82 84 84 82 70 62 54 46 33 29 22 15 65 108 100 98 101 96 96 102 110 107 106 99 98 92 88 90 82 76 74 65 55 67 67 66 53 63
342 351 348 359 355 3 12 11 18 18 28 46 52 47 44 53 58 58 67 64 62 57 55 51 49 50 49 48 50 52 49 47 42 48 59 61 65 62 59 62 71 69 65 52 54 72 79 82 83 84 82 79 77 72 62 47 38 44 32 15 40 57 69 77 84 86 87 95 105 105 100 88 78 84 97 102 96 90 90 76 72 59 74 79 78
3 31 27 27 14 22 20 19 27 35 40 50 52 52 46 47 56 59 62 70 73 71 65 58 55 54 53 54 54 55 58 58 51 45 54 69 74 79 81 85 89 86 79 72 64 65 68 74 80 82 81 77 74 70 70 64 56 55 52 43 25 33 42 45 58 69 65 79 95 103 105 111 102 95 94 92 90 85 78 69 67 73 70 72 79
46 57 52 43 37 33 35 32 41 48 48 50 55 52 50 51 57 62 66 66 65 66 67 66 62 60 60 58 57 55 55 55 57 59 57 56 61 67 69 73 81 86 84 77 66 59 61 67 71 75 76 74 67 62 57 55 45 51 57 63 55 47 44 50 63 62 67 78 81 89 98 96 93 91 84 82 81 86 86 86 83 77 74 73 66
68 72 68 54 52 43 43 48 48 45 52 56 60 57 57 60 62 65 67 68 70 72 73 73 71 66 62 59 56 55 57 59 54 49 45 35 32 36 46 50 68 79 89 87 85 81 77 72 68 71 69 66 71 65 55 45 42 41 54 62 71 72 64 56 60 63 72 77 77 80 77 78 77 71 67 67 67 66 70 69 68 71 70 66 64
70 77 78 73 61 56 53 48 50 53 57 63 64 65 64 64 64 63 66 70 71 70 67 67 69 67 69 68 64 57 54 56 56 53 49 44 38 40 42 32 31 46 60 72 74 76 79 80 82 81 75 73 70 74 73 64 44 36 351 51 69 70 72 69 61 58 63 63 57 54 64 70 69 67 65 65 64 66 65 65 67 68 70 69 66
81 78 82 80 73 61 59 59 60 64 64 64 66 73 73 69 67 65 66 67 69 71 71 69 69 69 66 62 62 58 57 62 63 61 51 45 51 57 51 45 34 39 48 52 64 72 72 74 77 79 77 72 65 63 61 59 48 46 64 65 66 70 70 71 69 63 67 72 66 60 66 70 77 77 72 69 71 71 72 71 65 66 66 67 67